Location: Molveno
(46.1500°N, 10.9667°E)
Time: 08:02:02
(UTC+00:00)

Cosmos 1818 - Pass Details

Date: 05 July 2020
Orbit: 777 x 796 km, 65.0° (Epoch: 05 August)

Event Time Altitude Azimuth Distance (km) Brightness Sun altitude
Rises 20:47:04 0° 229° (SW) 3,270 6.7 -12.9°
Reaches altitude 10° 20:49:31 10° 233° (SW) 2,348 6.0 -13.1°
Maximum altitude 20:54:49 55° 312° (NW) 951 4.4 -13.6°
Drops below altitude 10° 21:00:11 10° 30° (NNE) 2,372 6.4 -14.1°
Sets 21:02:40 0° 35° (NE) 3,306 7.1 -14.4°
